Content
SEND FEEDBACK

Daily
Averages
Monthly
Summary
Canada

VANCOUVER, BRITISH COLUMBIA


Home > North America > Canada > British Columbia
Elevation: 2 meters     Latitude: 49 11N     Longitude: 123 10W

WEATHER
 
SELECT A DAY
Number of Records: 249,213;   Date Range: 5/15/97 - 4/23/14
 
SHARE

PRINT THIS DATA

[ ← Previous Day ]
WEATHER ALMANAC - 28 FEBRUARY, 2013
[ Next Day → ]
[ °F ]   °C
Weather ElementAverageHighLow
Temperature6.6 °C10 °C (10:35 pm)3 °C (12:35 am)
Dewpoint5.7 °C9 °C (6:55 pm)3 °C (12:35 am)
Humidity94.2 %100 % (12:35 am)87 % (4:35 am)
Barometer1022.7 hPa1024.7 hPa (12:35 am)1021 hPa (6:55 pm)
Wind Speed9.2 km/h20.4 km/h (10:35 pm)
Wind Gust33.3 km/h (6:55 pm)
Weather ElementAverage
Visibility11.3 km
Wind DirectionESE (102.2 °)

Weather ElementTotal
Precipitation9.91 mm
Heating Degree Days11.8 (Base 18.3)
Averaged from 68 records on 28 February, 2013
WEATHER CONDITIONS BREAKOUT
WIND DIRECTION BREAKOUT
WEATHER BY HOUR - 28 FEBRUARY, 2013
[ °F ]   °C
Local TimeTemperatureDewpointHumidityBarometerVisibilityWind DirectionWind SpeedGust SpeedPrecipitationEventsConditions
12:35 AM3 °C3 °C100 %1024.7 hPa16.1 kmCalmScattered Clouds
12:55 AM3 °C3 °C100 %1024.7 hPa14.5 kmCalmMostly Cloudy
1:15 AM4 °C3 °C93 %1024.7 hPa12.9 kmEast (80°)5.6 km/hMostly Cloudy
1:35 AM5 °C4 °C93 %1024.4 hPa16.1 kmNorthMostly Cloudy
1:55 AM5 °C4 °C93 %1024.4 hPa16.1 kmNE (50°)7.4 km/hMostly Cloudy
2:15 AM5 °C4 °C93 %1024.7 hPa16.1 kmENE (60°)7.4 km/hMostly Cloudy
2:35 AM5 °C4 °C93 %1024.4 hPa16.1 kmNE (40°)7.4 km/hOvercast
2:55 AM5 °C4 °C93 %1024 hPa16.1 kmNE (50°)7.4 km/hMostly Cloudy
3:15 AM5 °C4 °C93 %1023.4 hPa16.1 kmEast (90°)7.4 km/hPartly Cloudy
3:35 AM5 °C4 °C93 %1023 hPa16.1 kmENE (60°)11.1 km/hScattered Clouds
4:15 AM5 °C4 °C93 %1023.4 hPa16.1 kmENE (60°)11.1 km/hClear
4:35 AM5 °C3 °C87 %1023.4 hPa16.1 kmNE (40°)7.4 km/hClear
4:55 AM5 °C3 °C87 %1023.7 hPa16.1 kmENE (60°)9.3 km/hScattered Clouds
5:15 AM5 °C3 °C87 %1023.4 hPa16.1 kmNE (40°)9.3 km/hMostly Cloudy
5:35 AM5 °C3 °C87 %1023 hPa16.1 kmNE (50°)7.4 km/hOvercast
5:55 AM5 °C3 °C87 %1023 hPa16.1 kmNE (40°)9.3 km/hRainLight Rain
6:15 AM5 °C3 °C87 %1023 hPa16.1 kmCalmMostly Cloudy
6:35 AM5 °C3 °C87 %1022.7 hPa16.1 kmCalmPartly Cloudy
7:15 AM5 °C3 °C87 %1022 hPa16.1 kmCalmRainLight Rain
7:35 AM5 °C3 °C87 %1022 hPa16.1 kmENE (70°)9.3 km/hClear
7:55 AM5 °C3 °C87 %1022.4 hPa16.1 kmENE (60°)5.6 km/hScattered Clouds
8:15 AM5 °C3 °C87 %1022 hPa11.3 kmENE (60°)13 km/hRainLight Rain
8:35 AM5 °C4 °C93 %1022 hPa8 kmNE (50°)14.8 km/hRainLight Rain
8:55 AM5 °C4 °C93 %1021.7 hPa8 kmENE (60°)9.3 km/hRainLight Rain
9:15 AM5 °C4 °C93 %1022 hPa8 kmENE (60°)7.4 km/hRainLight Rain
9:35 AM5 °C4 °C93 %1021.7 hPa8 kmENE (70°)11.1 km/hRainLight Rain
9:55 AM5 °C4 °C93 %1022 hPa6.4 kmENE (60°)13 km/hRainRain
10:15 AM5 °C4 °C93 %1022 hPa6.4 kmENE (60°)9.3 km/hRainLight Rain
10:35 AM5 °C4 °C93 %1021.7 hPa4.8 kmENE (70°)7.4 km/hRainRain
10:55 AM5 °C4 °C93 %1021.7 hPa4.8 kmNE (50°)9.3 km/h0.25 mmRainRain
11:15 AM5 °C4 °C93 %1022 hPa4.8 kmNNE (20°)9.3 km/h0.25 mmRainRain
11:35 AM5 °C4 °C93 %1022 hPa4.8 kmENE (60°)7.4 km/h0.51 mmRainRain
11:55 AM5 °C4 °C93 %1022.4 hPa4.8 kmNE (50°)9.3 km/h0.76 mmRainRain
12:15 PM5 °C4 °C93 %1022.4 hPa4 kmENE (60°)7.4 km/h0.76 mmRainRain
12:35 PM5 °C4 °C93 %1022.7 hPa4 kmENE (60°)9.3 km/h1.02 mmRainRain
12:55 PM5 °C5 °C100 %1022.4 hPa6.4 kmEast (100°)7.4 km/h1.02 mmRainLight Rain
1:15 PM5 °C5 °C100 %1022.4 hPa8 kmSE (140°)5.6 km/hOvercast
1:35 PM5 °C5 °C100 %1022.7 hPa12.9 kmCalmOvercast
2:15 PM6 °C5 °C93 %1022.7 hPa16.1 kmESE (110°)5.6 km/hOvercast
2:35 PM6 °C6 °C100 %1023 hPa16.1 kmEast (90°)5.6 km/hOvercast
2:55 PM7 °C6 °C93 %1022.7 hPa9.7 kmCalmRainLight Rain
3:15 PM8 °C7 °C93 %1023 hPa14.5 kmSE (140°)7.4 km/hMostly Cloudy
3:35 PM8 °C8 °C100 %1022.7 hPa14.5 kmSSE (160°)9.3 km/hOvercast
3:55 PM8 °C8 °C100 %1022.4 hPa4.8 kmSouth (180°)11.1 km/hRainLight Rain
4:15 PM9 °C8 °C93 %1022 hPa14.5 kmSouth (180°)14.8 km/h25.9 km/hMostly Cloudy
4:35 PM9 °C8 °C93 %1022 hPa8 kmSouth (180°)18.5 km/h27.8 km/hOvercast
4:55 PM9 °C8 °C93 %1021.7 hPa8 kmSouth (180°)11.1 km/h31.5 km/hOvercast
5:15 PM9 °C8 °C93 %1021.3 hPa8 kmSouth (180°)11.1 km/hRainLight Rain
5:35 PM9 °C8 °C93 %1021.3 hPa8 kmSouth (170°)14.8 km/h27.8 km/hOvercast
5:55 PM9 °C8 °C93 %1021.7 hPa6.4 kmSouth (180°)14.8 km/h25.9 km/hRainLight Rain
6:15 PM9 °C8 °C93 %1021.7 hPa6.4 kmSouth (180°)14.8 km/h0.25 mmRainLight Rain
6:35 PM9 °C8 °C93 %1021.3 hPa6.4 kmSouth (190°)13 km/h27.8 km/h0.25 mmRainLight Rain
6:55 PM9 °C9 °C100 %1021 hPa8 kmSouth (170°)14.8 km/h33.3 km/h0.25 mmRainLight Rain
7:15 PM9 °C8 °C93 %1021.3 hPa16.1 kmSouth (190°)18.5 km/h27.8 km/hOvercast
7:35 PM9 °C8 °C93 %1021.7 hPa16.1 kmSouth (190°)18.5 km/h27.8 km/hOvercast
7:55 PM9 °C9 °C100 %1022 hPa16.1 kmSouth (180°)7.4 km/hRainLight Rain
8:15 PM9 °C9 °C100 %1022.4 hPa14.5 kmSouth (190°)7.4 km/hRainLight Rain
8:35 PM9 °C9 °C100 %1022.7 hPa4.8 kmSouth (170°)7.4 km/hRainLight Rain
8:55 PM9 °C9 °C100 %1022.7 hPa12.9 kmSouth (180°)7.4 km/h0.25 mmRainLight Rain
9:15 PM9 °C9 °C100 %1022.7 hPa11.3 kmSSW (200°)13 km/h0.25 mmRainLight Rain
9:35 PM9 °C9 °C100 %1022.7 hPa4.8 kmSouth (180°)9.3 km/h0.76 mmRainRain
9:55 PM9 °C9 °C100 %1023 hPa4.8 kmSouth (190°)11.1 km/h1.78 mmRainLight Rain
10:15 PM9 °C9 °C100 %1022.7 hPa9.7 kmSouth (170°)9.3 km/hRainLight Rain
10:35 PM10 °C9 °C94 %1022.7 hPa16.1 kmSSW (200°)20.4 km/hMostly Cloudy
10:55 PM9 °C9 °C100 %1023.4 hPa16.1 kmSouth (190°)9.3 km/hRainLight Rain
11:15 PM9 °C9 °C100 %1023.7 hPa6.4 kmSouth (180°)7.4 km/h0.25 mmRainRain
11:35 PM9 °C9 °C100 %1024 hPa8 kmSouth (180°)13 km/h0.51 mmRainLight Rain
11:55 PM9 °C9 °C100 %1023.7 hPa4.8 kmSouth (190°)13 km/h0.76 mmRainRain
Hourly data recorded from CZBB, located 0 kilometers away from Vancouver, British Columbia







STORIES FROM OUR PARTNERS